O3B FM4

Last updated on Wed Sep 09 2026 00:03:19 GMT+0000 (Coordinated Universal Time)

1 39189U 13031B 26250.91406154 -.00000027 00000+0 00000+0 0 9991 2 39189 0.0423 358.5131 0002856 201.4316 160.0431 5.00117796241182
UTC large
Height (km)
Speed (km/s)
/
Latitude / Longitude
Inclination (degrees)
Orbital Period (minutes)
Azimuth
Elevation
Range (km)
Doppler Factor

Next 0 passes for location: London (51.5072 / 0.1276)

No passes found over London.
O3B FM4